User: anonymous   Login
Location: Demmingen
(48.6757°N, 10.4375°E)
Time: 03:29:50
(UTC+00:00)
Language:

DELTA 2 R/B (1) - Orbit

View from above orbital plane
View from above orbital plane
View from above satellite
View from above satellite

Ground track
Ground track

The orbit data is extracted from the following two-line orbital elements,

1 27665U 03005C   24200.50009792  .00000330  00000-0  16229-3 0  9993
2 27665  39.5743 247.8023 0008382 180.9212 323.2718 14.29044078121031
Epoch (UTC): 18 July 2024 12:00:08
Eccentricity: 0.0008382
inclination: 39.5743°
perigee height: 789 km
apogee height: 801 km
right ascension of ascending node: 247.8023°
argument of perigee: 180.9212°
revolutions per day: 14.29044078
mean anomaly at epoch: 323.2718°
orbit number at epoch: 12103

The dashed part of the orbit path shows where the satellite is in the earth's shadow,  

DLR